Year,Month,Day,Hour,Minute,Value (Times are PST for temperature in C)
2020,04,15,00,00,10.30
2020,04,15,00,01,10.30
2020,04,15,00,02,10.30
2020,04,15,00,03,10.30
2020,04,15,00,04,10.30
2020,04,15,00,05,10.30
2020,04,15,00,06,10.30
2020,04,15,00,07,10.30
2020,04,15,00,08,10.30
2020,04,15,00,09,10.30
2020,04,15,00,10,10.30
2020,04,15,00,11,10.30
2020,04,15,00,12,10.30
2020,04,15,00,13,10.30
2020,04,15,00,14,10.30
2020,04,15,00,15,10.30
2020,04,15,00,16,10.30
2020,04,15,00,17,10.30
2020,04,15,00,18,10.30
2020,04,15,00,19,10.30
2020,04,15,00,20,10.30
2020,04,15,00,21,10.30
2020,04,15,00,22,10.30
2020,04,15,00,23,10.30
2020,04,15,00,24,10.30
2020,04,15,00,25,10.30
2020,04,15,00,26,10.30
2020,04,15,00,27,10.30
2020,04,15,00,28,10.30
2020,04,15,00,29,10.30
2020,04,15,00,30,10.30
2020,04,15,00,31,10.30
2020,04,15,00,32,10.30
2020,04,15,00,33,10.30
2020,04,15,00,34,10.30
2020,04,15,00,35,10.30
2020,04,15,00,36,10.30
2020,04,15,00,37,10.30
2020,04,15,00,38,10.30
2020,04,15,00,39,10.30
2020,04,15,00,40,10.30
2020,04,15,00,41,10.30
2020,04,15,00,42,10.30
2020,04,15,00,43,10.30
2020,04,15,00,44,10.30
2020,04,15,00,45,10.30
2020,04,15,00,46,10.30
2020,04,15,00,47,10.30
2020,04,15,00,48,10.30
2020,04,15,00,49,10.20
2020,04,15,00,50,10.20
2020,04,15,00,51,10.20
2020,04,15,00,52,10.20
2020,04,15,00,53,10.20
2020,04,15,00,54,10.20
2020,04,15,00,55,10.10
2020,04,15,00,56,10.10
2020,04,15,00,57,10.10
2020,04,15,00,58,10.10
2020,04,15,00,59,10.10
2020,04,15,01,00,10.10
2020,04,15,01,01,10.10
2020,04,15,01,02,10.10
2020,04,15,01,03,10.10
2020,04,15,01,04,10.10
2020,04,15,01,05,10.00
2020,04,15,01,06,10.00
2020,04,15,01,07,10.00
2020,04,15,01,08,10.00
2020,04,15,01,09,10.00
2020,04,15,01,10,10.00
2020,04,15,01,11,10.00
2020,04,15,01,12,10.00
2020,04,15,01,13,10.00
2020,04,15,01,14,9.90
2020,04,15,01,15,9.90
2020,04,15,01,16,9.90
2020,04,15,01,17,9.90
2020,04,15,01,18,9.90
2020,04,15,01,19,9.90
2020,04,15,01,20,9.80
2020,04,15,01,21,9.80
2020,04,15,01,22,9.80
2020,04,15,01,23,9.80
2020,04,15,01,24,9.80
2020,04,15,01,25,9.80
2020,04,15,01,26,9.70
2020,04,15,01,27,9.70
2020,04,15,01,28,9.70
2020,04,15,01,29,9.70
2020,04,15,01,30,9.70
2020,04,15,01,31,9.60
2020,04,15,01,32,9.60
2020,04,15,01,33,9.60
2020,04,15,01,34,9.60
2020,04,15,01,35,9.60
2020,04,15,01,36,9.60
2020,04,15,01,37,9.50
2020,04,15,01,38,9.50
2020,04,15,01,39,9.50
2020,04,15,01,40,9.50
2020,04,15,01,41,9.40
2020,04,15,01,42,9.40
2020,04,15,01,43,9.40
2020,04,15,01,44,9.40
2020,04,15,01,45,9.40
2020,04,15,01,46,9.30
2020,04,15,01,47,9.30
2020,04,15,01,48,9.30
2020,04,15,01,49,9.30
2020,04,15,01,50,9.20
2020,04,15,01,51,9.20
2020,04,15,01,52,9.20
2020,04,15,01,53,9.20
2020,04,15,01,54,9.20
2020,04,15,01,55,9.20
2020,04,15,01,56,9.10
2020,04,15,01,57,9.10
2020,04,15,01,58,9.10
2020,04,15,01,59,9.10
2020,04,15,02,00,9.10
2020,04,15,02,01,9.10
2020,04,15,02,02,9.10
2020,04,15,02,03,9.00
2020,04,15,02,04,9.00
2020,04,15,02,05,9.00
2020,04,15,02,06,9.00
2020,04,15,02,07,8.90
2020,04,15,02,08,8.90
2020,04,15,02,09,8.90
2020,04,15,02,10,8.90
2020,04,15,02,11,8.90
2020,04,15,02,12,8.90
2020,04,15,02,13,8.90
2020,04,15,02,14,8.90
2020,04,15,02,15,8.90
2020,04,15,02,16,8.90
2020,04,15,02,17,8.90
2020,04,15,02,18,8.90
2020,04,15,02,19,8.90
2020,04,15,02,20,8.90
2020,04,15,02,21,8.90
2020,04,15,02,22,8.90
2020,04,15,02,23,8.90
2020,04,15,02,24,8.90
2020,04,15,02,25,8.90
2020,04,15,02,26,9.00
2020,04,15,02,27,9.00
2020,04,15,02,28,9.00
2020,04,15,02,29,9.00
2020,04,15,02,30,9.00
2020,04,15,02,31,9.00
2020,04,15,02,32,9.10
2020,04,15,02,33,9.00
2020,04,15,02,34,9.00
2020,04,15,02,35,9.00
2020,04,15,02,36,9.00
2020,04,15,02,37,9.00
2020,04,15,02,38,9.00
2020,04,15,02,39,9.00
2020,04,15,02,40,9.00
2020,04,15,02,41,8.90
2020,04,15,02,42,8.90
2020,04,15,02,43,8.90
2020,04,15,02,44,8.90
2020,04,15,02,45,8.90
2020,04,15,02,46,8.80
2020,04,15,02,47,8.80
2020,04,15,02,48,8.80
2020,04,15,02,49,8.80
2020,04,15,02,50,8.80
2020,04,15,02,51,8.80
2020,04,15,02,52,8.70
2020,04,15,02,53,8.70
2020,04,15,02,54,8.70
2020,04,15,02,55,8.70
2020,04,15,02,56,8.70
2020,04,15,02,57,8.70
2020,04,15,02,58,8.60
2020,04,15,02,59,8.60
2020,04,15,03,00,8.60
2020,04,15,03,01,8.60
2020,04,15,03,02,8.60
2020,04,15,03,03,8.60
2020,04,15,03,04,8.60
2020,04,15,03,05,8.50
2020,04,15,03,06,8.50
2020,04,15,03,07,8.50
2020,04,15,03,08,8.50
2020,04,15,03,09,8.40
2020,04,15,03,10,8.40
2020,04,15,03,11,8.40
2020,04,15,03,12,8.40
2020,04,15,03,13,8.40
2020,04,15,03,14,8.30
2020,04,15,03,15,8.30
2020,04,15,03,16,8.30
2020,04,15,03,17,8.30
2020,04,15,03,18,8.30
2020,04,15,03,19,8.30
2020,04,15,03,20,8.30
2020,04,15,03,21,8.30
2020,04,15,03,22,8.30
2020,04,15,03,23,8.20
2020,04,15,03,24,8.20
2020,04,15,03,25,8.20
2020,04,15,03,26,8.20
2020,04,15,03,27,8.20
2020,04,15,03,28,8.20
2020,04,15,03,29,8.10
2020,04,15,03,30,8.10
2020,04,15,03,31,8.10
2020,04,15,03,32,8.10
2020,04,15,03,33,8.10
2020,04,15,03,34,8.10
2020,04,15,03,35,8.00
2020,04,15,03,36,8.00
2020,04,15,03,37,8.00
2020,04,15,03,38,7.90
2020,04,15,03,39,7.90
2020,04,15,03,40,7.90
2020,04,15,03,41,7.90
2020,04,15,03,42,7.90
2020,04,15,03,43,7.80
2020,04,15,03,44,7.80
2020,04,15,03,45,7.80
2020,04,15,03,46,7.80
2020,04,15,03,47,7.80
2020,04,15,03,48,7.80
2020,04,15,03,49,7.70
2020,04,15,03,50,7.70
2020,04,15,03,51,7.70
2020,04,15,03,52,7.70
2020,04,15,03,53,7.70
2020,04,15,03,54,7.70
2020,04,15,03,55,7.70
2020,04,15,03,56,7.70
2020,04,15,03,57,7.70
2020,04,15,03,58,7.60
2020,04,15,03,59,7.60
2020,04,15,04,00,7.60
2020,04,15,04,01,7.60
2020,04,15,04,02,7.60
2020,04,15,04,03,7.60
2020,04,15,04,04,7.60
2020,04,15,04,05,7.60
2020,04,15,04,06,7.60
2020,04,15,04,07,7.50
2020,04,15,04,08,7.50
2020,04,15,04,09,7.50
2020,04,15,04,10,7.40
2020,04,15,04,11,7.40
2020,04,15,04,12,7.40
2020,04,15,04,13,7.40
2020,04,15,04,14,7.30
2020,04,15,04,15,7.30
2020,04,15,04,16,7.30
2020,04,15,04,17,7.30
2020,04,15,04,18,7.30
2020,04,15,04,19,7.30
2020,04,15,04,20,7.20
2020,04,15,04,21,7.20
2020,04,15,04,22,7.20
2020,04,15,04,23,7.20
2020,04,15,04,24,7.20
2020,04,15,04,25,7.20
2020,04,15,04,26,7.20
2020,04,15,04,27,7.20
2020,04,15,04,28,7.20
2020,04,15,04,29,7.10
2020,04,15,04,30,7.10
2020,04,15,04,31,7.10
2020,04,15,04,32,7.10
2020,04,15,04,33,7.10
2020,04,15,04,34,7.10
2020,04,15,04,35,7.10
2020,04,15,04,36,7.00
2020,04,15,04,37,7.00
2020,04,15,04,38,7.00
2020,04,15,04,39,7.00
2020,04,15,04,40,7.00
2020,04,15,04,41,7.00
2020,04,15,04,42,6.90
2020,04,15,04,43,6.90
2020,04,15,04,44,6.90
2020,04,15,04,45,6.90
2020,04,15,04,46,6.90
2020,04,15,04,47,6.90
2020,04,15,04,48,6.90
2020,04,15,04,49,6.80
2020,04,15,04,50,6.80
2020,04,15,04,51,6.80
2020,04,15,04,52,6.80
2020,04,15,04,53,6.80
2020,04,15,04,54,6.80
2020,04,15,04,55,6.70
2020,04,15,04,56,6.70
2020,04,15,04,57,6.70
2020,04,15,04,58,6.70
2020,04,15,04,59,6.70
2020,04,15,05,00,6.70
2020,04,15,05,01,6.70
2020,04,15,05,02,6.60
2020,04,15,05,03,6.60
2020,04,15,05,04,6.60
2020,04,15,05,05,6.60
2020,04,15,05,06,6.60
2020,04,15,05,07,6.60
2020,04,15,05,08,6.60
2020,04,15,05,09,6.60
2020,04,15,05,10,6.60
2020,04,15,05,11,6.50
2020,04,15,05,12,6.50
2020,04,15,05,13,6.50
2020,04,15,05,14,6.50
2020,04,15,05,15,6.50
2020,04,15,05,16,6.50
2020,04,15,05,17,6.50
2020,04,15,05,18,6.40
2020,04,15,05,19,6.40
2020,04,15,05,20,6.40
2020,04,15,05,21,6.40
2020,04,15,05,22,6.40
2020,04,15,05,23,6.40
2020,04,15,05,24,6.40
2020,04,15,05,25,6.40
2020,04,15,05,26,6.40
2020,04,15,05,27,6.40
2020,04,15,05,28,6.30
2020,04,15,05,29,6.30
2020,04,15,05,30,6.30
2020,04,15,05,31,6.30
2020,04,15,05,32,6.30
2020,04,15,05,33,6.30
2020,04,15,05,34,6.30
2020,04,15,05,35,6.30
2020,04,15,05,36,6.30
2020,04,15,05,37,6.30
2020,04,15,05,38,6.20
2020,04,15,05,39,6.20
2020,04,15,05,40,6.20
2020,04,15,05,41,6.20
2020,04,15,05,42,6.20
2020,04,15,05,43,6.20
2020,04,15,05,44,6.20
2020,04,15,05,45,6.20
2020,04,15,05,46,6.20
2020,04,15,05,47,6.20
2020,04,15,05,48,6.20
2020,04,15,05,49,6.10
2020,04,15,05,50,6.10
2020,04,15,05,51,6.10
2020,04,15,05,52,6.10
2020,04,15,05,53,6.10
2020,04,15,05,54,6.10
2020,04,15,05,55,6.10
2020,04,15,05,56,6.00
2020,04,15,05,57,6.00
2020,04,15,05,58,6.00
2020,04,15,05,59,5.90
2020,04,15,06,00,5.90
2020,04,15,06,01,5.90
2020,04,15,06,02,5.90
2020,04,15,06,03,5.90
2020,04,15,06,04,5.80
2020,04,15,06,05,5.80
2020,04,15,06,06,5.80
2020,04,15,06,07,5.80
2020,04,15,06,08,5.80
2020,04,15,06,09,5.70
2020,04,15,06,10,5.70
2020,04,15,06,11,5.70
2020,04,15,06,12,5.70
2020,04,15,06,13,5.70
2020,04,15,06,14,5.70
2020,04,15,06,15,5.60
2020,04,15,06,16,5.60
2020,04,15,06,17,5.60
2020,04,15,06,18,5.60
2020,04,15,06,19,5.60
2020,04,15,06,20,5.60
2020,04,15,06,21,5.60
2020,04,15,06,22,5.60
2020,04,15,06,23,5.50
2020,04,15,06,24,5.50
2020,04,15,06,25,5.50
2020,04,15,06,26,5.50
2020,04,15,06,27,5.50
2020,04,15,06,28,5.50
2020,04,15,06,29,5.40
2020,04,15,06,30,5.40
2020,04,15,06,31,5.40
2020,04,15,06,32,5.40
2020,04,15,06,33,5.40
2020,04,15,06,34,5.40
2020,04,15,06,35,5.40
2020,04,15,06,36,5.40
2020,04,15,06,37,5.40
2020,04,15,06,38,5.30
2020,04,15,06,39,5.30
2020,04,15,06,40,5.30
2020,04,15,06,41,5.30
2020,04,15,06,42,5.30
2020,04,15,06,43,5.30
2020,04,15,06,44,5.20
2020,04,15,06,45,5.20
2020,04,15,06,46,5.20
2020,04,15,06,47,5.20
2020,04,15,06,48,5.20
2020,04,15,06,49,5.20
2020,04,15,06,50,5.20
2020,04,15,06,51,5.20
2020,04,15,06,52,5.20
2020,04,15,06,53,5.20
2020,04,15,06,54,5.20
2020,04,15,06,55,5.20
2020,04,15,06,56,5.20
2020,04,15,06,57,5.20
2020,04,15,06,58,5.10
2020,04,15,06,59,5.10
2020,04,15,07,00,5.10
2020,04,15,07,01,5.10
2020,04,15,07,02,5.10
2020,04,15,07,03,5.10
2020,04,15,07,04,5.10
2020,04,15,07,05,5.10
2020,04,15,07,06,5.10
2020,04,15,07,07,5.10
2020,04,15,07,08,5.10
2020,04,15,07,09,5.10
2020,04,15,07,10,5.10
2020,04,15,07,11,5.10
2020,04,15,07,12,5.10
2020,04,15,07,13,5.10
2020,04,15,07,14,5.20
2020,04,15,07,15,5.30
2020,04,15,07,16,5.40
2020,04,15,07,17,5.50
2020,04,15,07,18,5.70
2020,04,15,07,19,5.90
2020,04,15,07,20,6.20
2020,04,15,07,21,6.50
2020,04,15,07,22,6.80
2020,04,15,07,23,7.00
2020,04,15,07,24,7.20
2020,04,15,07,25,7.40
2020,04,15,07,26,7.50
2020,04,15,07,27,7.70
2020,04,15,07,28,7.80
2020,04,15,07,29,7.80
2020,04,15,07,30,8.00
2020,04,15,07,31,8.10
2020,04,15,07,32,8.20
2020,04,15,07,33,8.30
2020,04,15,07,34,8.40
2020,04,15,07,35,8.50
2020,04,15,07,36,8.60
2020,04,15,07,37,8.70
2020,04,15,07,38,8.80
2020,04,15,07,39,8.90
2020,04,15,07,40,8.90
2020,04,15,07,41,9.00
2020,04,15,07,42,9.10
2020,04,15,07,43,9.10
2020,04,15,07,44,9.20
2020,04,15,07,45,9.20
2020,04,15,07,46,9.30
2020,04,15,07,47,9.30
2020,04,15,07,48,9.30
2020,04,15,07,49,9.40
2020,04,15,07,50,9.40
2020,04,15,07,51,9.50
2020,04,15,07,52,9.50
2020,04,15,07,53,9.60
2020,04,15,07,54,9.60
2020,04,15,07,55,9.60
2020,04,15,07,56,9.60
2020,04,15,07,57,9.70
2020,04,15,07,58,9.70
2020,04,15,07,59,9.70
2020,04,15,08,00,9.70
2020,04,15,08,01,9.80
2020,04,15,08,02,9.80
2020,04,15,08,03,9.80
2020,04,15,08,04,9.90
2020,04,15,08,05,9.90
2020,04,15,08,06,9.90
2020,04,15,08,07,10.00
2020,04,15,08,08,10.00
2020,04,15,08,09,10.00
2020,04,15,08,10,10.00
2020,04,15,08,11,10.10
2020,04,15,08,12,10.10
2020,04,15,08,13,10.10
2020,04,15,08,14,10.10
2020,04,15,08,15,10.10
2020,04,15,08,16,10.10
2020,04,15,08,17,10.20
2020,04,15,08,18,10.20
2020,04,15,08,19,10.20
2020,04,15,08,20,10.20
2020,04,15,08,21,10.20
2020,04,15,08,22,10.20
2020,04,15,08,23,10.20
2020,04,15,08,24,10.20
2020,04,15,08,25,10.20
2020,04,15,08,26,10.20
2020,04,15,08,27,10.20
2020,04,15,08,28,10.20
2020,04,15,08,29,10.20
2020,04,15,08,30,10.20
2020,04,15,08,31,10.20
2020,04,15,08,32,10.20
2020,04,15,08,33,10.20
2020,04,15,08,34,10.20
2020,04,15,08,35,10.20
2020,04,15,08,36,10.20
2020,04,15,08,37,10.20
2020,04,15,08,38,10.20
2020,04,15,08,39,10.20
2020,04,15,08,40,10.30
2020,04,15,08,41,10.30
2020,04,15,08,42,10.30
2020,04,15,08,43,10.30
2020,04,15,08,44,10.30
2020,04,15,08,45,10.30
2020,04,15,08,46,10.30
2020,04,15,08,47,10.30
2020,04,15,08,48,10.40
2020,04,15,08,49,10.40
2020,04,15,08,50,10.40
2020,04,15,08,51,10.40
2020,04,15,08,52,10.50
2020,04,15,08,53,10.50
2020,04,15,08,54,10.50
2020,04,15,08,55,10.50
2020,04,15,08,56,10.60
2020,04,15,08,57,10.60
2020,04,15,08,58,10.60
2020,04,15,08,59,10.60
2020,04,15,09,00,10.60
2020,04,15,09,01,10.60
2020,04,15,09,02,10.60
2020,04,15,09,03,10.60
2020,04,15,09,04,10.60
2020,04,15,09,05,10.60
2020,04,15,09,06,10.70
2020,04,15,09,07,10.70
2020,04,15,09,08,10.70
2020,04,15,09,09,10.80
2020,04,15,09,10,10.80
2020,04,15,09,11,10.80
2020,04,15,09,12,10.80
2020,04,15,09,13,10.90
2020,04,15,09,14,11.00
2020,04,15,09,15,11.00
2020,04,15,09,16,11.10
2020,04,15,09,17,11.20
2020,04,15,09,18,11.20
2020,04,15,09,19,11.30
2020,04,15,09,20,11.30
2020,04,15,09,21,11.40
2020,04,15,09,22,11.40
2020,04,15,09,23,11.40
2020,04,15,09,24,11.50
2020,04,15,09,25,11.50
2020,04,15,09,26,11.60
2020,04,15,09,27,11.60
2020,04,15,09,28,11.70
2020,04,15,09,29,11.80
2020,04,15,09,30,11.80
2020,04,15,09,31,11.90
2020,04,15,09,32,11.90
2020,04,15,09,33,12.00
2020,04,15,09,34,12.00
2020,04,15,09,35,12.00
2020,04,15,09,36,12.10
2020,04,15,09,37,12.20
2020,04,15,09,38,12.20
2020,04,15,09,39,12.20
2020,04,15,09,40,12.30
2020,04,15,09,41,12.30
2020,04,15,09,42,12.40
2020,04,15,09,43,12.50
2020,04,15,09,44,12.50
2020,04,15,09,45,12.60
2020,04,15,09,46,12.60
2020,04,15,09,47,12.60
2020,04,15,09,48,12.70
2020,04,15,09,49,12.70
2020,04,15,09,50,12.70
2020,04,15,09,51,12.80
2020,04,15,09,52,12.80
2020,04,15,09,53,12.90
2020,04,15,09,54,12.90
2020,04,15,09,55,13.00
2020,04,15,09,56,13.00
2020,04,15,09,57,13.10
2020,04,15,09,58,13.10
2020,04,15,09,59,13.20
2020,04,15,10,00,13.20
2020,04,15,10,01,13.20
2020,04,15,10,02,13.30
2020,04,15,10,03,13.30
2020,04,15,10,04,13.40
2020,04,15,10,05,13.50
2020,04,15,10,06,13.60
2020,04,15,10,07,13.60
2020,04,15,10,08,13.70
2020,04,15,10,09,13.80
2020,04,15,10,10,13.80
2020,04,15,10,11,13.80
2020,04,15,10,12,13.80
2020,04,15,10,13,13.90
2020,04,15,10,14,13.90
2020,04,15,10,15,13.90
2020,04,15,10,16,13.80
2020,04,15,10,17,13.70
2020,04,15,10,18,13.70
2020,04,15,10,19,13.60
2020,04,15,10,20,13.60
2020,04,15,10,21,13.60
2020,04,15,10,22,13.70
2020,04,15,10,23,13.70
2020,04,15,10,24,13.60
2020,04,15,10,25,13.40
2020,04,15,10,26,13.30
2020,04,15,10,27,13.20
2020,04,15,10,28,13.10
2020,04,15,10,29,13.00
2020,04,15,10,30,13.00
2020,04,15,10,31,12.90
2020,04,15,10,32,12.80
2020,04,15,10,33,12.70
2020,04,15,10,34,12.70
2020,04,15,10,35,12.60
2020,04,15,10,36,12.60
2020,04,15,10,37,12.60
2020,04,15,10,38,12.50
2020,04,15,10,39,12.50
2020,04,15,10,40,12.50
2020,04,15,10,41,12.50
2020,04,15,10,42,12.60
2020,04,15,10,43,12.60
2020,04,15,10,44,12.60
2020,04,15,10,45,12.60
2020,04,15,10,46,12.60
2020,04,15,10,47,12.60
2020,04,15,10,48,12.60
2020,04,15,10,49,12.70
2020,04,15,10,50,12.80
2020,04,15,10,51,12.90
2020,04,15,10,52,13.00
2020,04,15,10,53,13.10
2020,04,15,10,54,13.10
2020,04,15,10,55,13.10
2020,04,15,10,56,13.10
2020,04,15,10,57,13.10
2020,04,15,10,58,13.10
2020,04,15,10,59,13.20
2020,04,15,11,00,13.20
2020,04,15,11,01,13.20
2020,04,15,11,02,13.20
2020,04,15,11,03,13.30
2020,04,15,11,04,13.40
2020,04,15,11,05,13.40
2020,04,15,11,06,13.40
2020,04,15,11,07,13.40
2020,04,15,11,08,13.40
2020,04,15,11,09,13.40
2020,04,15,11,10,13.50
2020,04,15,11,11,13.60
2020,04,15,11,12,13.70
2020,04,15,11,13,13.80
2020,04,15,11,14,14.00
2020,04,15,11,15,14.10
2020,04,15,11,16,14.10
2020,04,15,11,17,14.30
2020,04,15,11,18,14.40
2020,04,15,11,19,14.30
2020,04,15,11,20,14.30
2020,04,15,11,21,14.40
2020,04,15,11,22,14.40
2020,04,15,11,23,14.50
2020,04,15,11,24,14.50
2020,04,15,11,25,14.50
2020,04,15,11,26,14.60
2020,04,15,11,27,14.80
2020,04,15,11,28,14.80
2020,04,15,11,29,14.90
2020,04,15,11,30,14.90
2020,04,15,11,31,14.90
2020,04,15,11,32,15.00
2020,04,15,11,33,15.00
2020,04,15,11,34,15.00
2020,04,15,11,35,15.00
2020,04,15,11,36,15.00
2020,04,15,11,37,14.90
2020,04,15,11,38,14.80
2020,04,15,11,39,14.70
2020,04,15,11,40,14.70
2020,04,15,11,41,14.60
2020,04,15,11,42,14.50
2020,04,15,11,43,14.40
2020,04,15,11,44,14.30
2020,04,15,11,45,14.30
2020,04,15,11,46,14.30
2020,04,15,11,47,14.30
2020,04,15,11,48,14.30
2020,04,15,11,49,14.40
2020,04,15,11,50,14.50
2020,04,15,11,51,14.60
2020,04,15,11,52,14.60
2020,04,15,11,53,14.80
2020,04,15,11,54,14.90
2020,04,15,11,55,14.90
2020,04,15,11,56,15.00
2020,04,15,11,57,15.00
2020,04,15,11,58,15.00
2020,04,15,11,59,14.90
2020,04,15,12,00,14.90
2020,04,15,12,01,14.90
2020,04,15,12,02,14.90
2020,04,15,12,03,14.90
2020,04,15,12,04,14.90
2020,04,15,12,05,15.00
2020,04,15,12,06,15.10
2020,04,15,12,07,15.00
2020,04,15,12,08,15.00
2020,04,15,12,09,15.00
2020,04,15,12,10,15.00
2020,04,15,12,11,15.10
2020,04,15,12,12,15.20
2020,04,15,12,13,15.30
2020,04,15,12,14,15.30
2020,04,15,12,15,15.30
2020,04,15,12,16,15.30
2020,04,15,12,17,15.30
2020,04,15,12,18,15.40
2020,04,15,12,19,15.50
2020,04,15,12,20,15.60
2020,04,15,12,21,15.60
2020,04,15,12,22,15.70
2020,04,15,12,23,15.80
2020,04,15,12,24,15.70
2020,04,15,12,25,15.70
2020,04,15,12,26,15.60
2020,04,15,12,27,15.50
2020,04,15,12,28,15.40
2020,04,15,12,29,15.30
2020,04,15,12,30,15.20
2020,04,15,12,31,15.20
2020,04,15,12,32,15.10
2020,04,15,12,33,15.20
2020,04,15,12,34,15.30
2020,04,15,12,35,15.30
2020,04,15,12,36,15.40
2020,04,15,12,37,15.40
2020,04,15,12,38,15.30
2020,04,15,12,39,15.30
2020,04,15,12,40,15.40
2020,04,15,12,41,15.40
2020,04,15,12,42,15.40
2020,04,15,12,43,15.40
2020,04,15,12,44,15.30
2020,04,15,12,45,15.40
2020,04,15,12,46,15.50
2020,04,15,12,47,15.60
2020,04,15,12,48,15.50
2020,04,15,12,49,15.40
2020,04,15,12,50,15.30
2020,04,15,12,51,15.40
2020,04,15,12,52,15.30
2020,04,15,12,53,15.30
2020,04,15,12,54,15.30
2020,04,15,12,55,15.40
2020,04,15,12,56,15.40
2020,04,15,12,57,15.40
2020,04,15,12,58,15.50
2020,04,15,12,59,15.50
2020,04,15,13,00,15.50
2020,04,15,13,01,15.60
2020,04,15,13,02,15.50
2020,04,15,13,03,15.50
2020,04,15,13,04,15.60
2020,04,15,13,05,15.70
2020,04,15,13,06,15.70
2020,04,15,13,07,15.70
2020,04,15,13,08,15.70
2020,04,15,13,09,15.80
2020,04,15,13,10,15.80
2020,04,15,13,11,15.90
2020,04,15,13,12,16.10
2020,04,15,13,13,16.20
2020,04,15,13,14,16.30
2020,04,15,13,15,16.30
2020,04,15,13,16,16.40
2020,04,15,13,17,16.40
2020,04,15,13,18,16.50
2020,04,15,13,19,16.60
2020,04,15,13,20,16.60
2020,04,15,13,21,16.50
2020,04,15,13,22,16.50
2020,04,15,13,23,16.50
2020,04,15,13,24,16.40
2020,04,15,13,25,16.40
2020,04,15,13,26,16.40
2020,04,15,13,27,16.40
2020,04,15,13,28,16.30
2020,04,15,13,29,16.30
2020,04,15,13,30,16.30
2020,04,15,13,31,16.30
2020,04,15,13,32,16.20
2020,04,15,13,33,16.30
2020,04,15,13,34,16.40
2020,04,15,13,35,16.40
2020,04,15,13,36,16.50
2020,04,15,13,37,16.40
2020,04,15,13,38,16.50
2020,04,15,13,39,16.70
2020,04,15,13,40,16.80
2020,04,15,13,41,16.80
2020,04,15,13,42,16.90
2020,04,15,13,43,16.80
2020,04,15,13,44,16.80
2020,04,15,13,45,16.80
2020,04,15,13,46,16.80
2020,04,15,13,47,16.80
2020,04,15,13,48,16.80
2020,04,15,13,49,16.80
2020,04,15,13,50,16.80
2020,04,15,13,51,16.80
2020,04,15,13,52,16.70
2020,04,15,13,53,16.60
2020,04,15,13,54,16.50
2020,04,15,13,55,16.40
2020,04,15,13,56,16.30
2020,04,15,13,57,16.30
2020,04,15,13,58,16.30
2020,04,15,13,59,16.20
2020,04,15,14,00,16.20
2020,04,15,14,01,16.30
2020,04,15,14,02,16.40
2020,04,15,14,03,16.50
2020,04,15,14,04,16.60
2020,04,15,14,05,16.60
2020,04,15,14,06,16.50
2020,04,15,14,07,16.50
2020,04,15,14,08,16.40
2020,04,15,14,09,16.40
2020,04,15,14,10,16.30
2020,04,15,14,11,16.20
2020,04,15,14,12,16.20
2020,04,15,14,13,16.20
2020,04,15,14,14,16.20
2020,04,15,14,15,16.10
2020,04,15,14,16,16.00
2020,04,15,14,17,15.90
2020,04,15,14,18,15.80
2020,04,15,14,19,15.70
2020,04,15,14,20,15.70
2020,04,15,14,21,15.60
2020,04,15,14,22,15.60
2020,04,15,14,23,15.70
2020,04,15,14,24,15.80
2020,04,15,14,25,15.80
2020,04,15,14,26,15.90
2020,04,15,14,27,15.90
2020,04,15,14,28,15.90
2020,04,15,14,29,15.80
2020,04,15,14,30,15.80
2020,04,15,14,31,16.00
2020,04,15,14,32,16.00
2020,04,15,14,33,16.10
2020,04,15,14,34,16.10
2020,04,15,14,35,16.20
2020,04,15,14,36,16.30
2020,04,15,14,37,16.40
2020,04,15,14,38,16.50
2020,04,15,14,39,16.40
2020,04,15,14,40,16.50
2020,04,15,14,41,16.50
2020,04,15,14,42,16.50
2020,04,15,14,43,16.50
2020,04,15,14,44,16.50
2020,04,15,14,45,16.60
2020,04,15,14,46,16.60
2020,04,15,14,47,16.60
2020,04,15,14,48,16.60
2020,04,15,14,49,16.60
2020,04,15,14,50,16.70
2020,04,15,14,51,16.70
2020,04,15,14,52,16.70
2020,04,15,14,53,16.70
2020,04,15,14,54,16.80
2020,04,15,14,55,16.80
2020,04,15,14,56,16.90
2020,04,15,14,57,17.00
2020,04,15,14,58,17.00
2020,04,15,14,59,17.10
2020,04,15,15,00,17.10
2020,04,15,15,01,17.10
2020,04,15,15,02,17.10
2020,04,15,15,03,17.20
2020,04,15,15,04,17.20
2020,04,15,15,05,17.20
2020,04,15,15,06,17.30
2020,04,15,15,07,17.40
2020,04,15,15,08,17.50
2020,04,15,15,09,17.60
2020,04,15,15,10,17.60
2020,04,15,15,11,17.70
2020,04,15,15,12,17.70
2020,04,15,15,13,17.70
2020,04,15,15,14,17.60
2020,04,15,15,15,17.70
2020,04,15,15,16,17.70
2020,04,15,15,17,17.70
2020,04,15,15,18,17.70
2020,04,15,15,19,17.60
2020,04,15,15,20,17.60
2020,04,15,15,21,17.60
2020,04,15,15,22,17.70
2020,04,15,15,23,17.70
2020,04,15,15,24,17.80
2020,04,15,15,25,17.90
2020,04,15,15,26,17.90
2020,04,15,15,27,17.90
2020,04,15,15,28,17.90
2020,04,15,15,29,17.90
2020,04,15,15,30,17.90
2020,04,15,15,31,17.90
2020,04,15,15,32,18.00
2020,04,15,15,33,18.10
2020,04,15,15,34,18.10
2020,04,15,15,35,18.00
2020,04,15,15,36,17.90
2020,04,15,15,37,17.80
2020,04,15,15,38,17.90
2020,04,15,15,39,18.00
2020,04,15,15,40,18.10
2020,04,15,15,41,18.20
2020,04,15,15,42,18.20
2020,04,15,15,43,18.20
2020,04,15,15,44,18.20
2020,04,15,15,45,18.20
2020,04,15,15,46,18.20
2020,04,15,15,47,18.30
2020,04,15,15,48,18.30
2020,04,15,15,49,18.40
2020,04,15,15,50,18.40
2020,04,15,15,51,18.40
2020,04,15,15,52,18.40
2020,04,15,15,53,18.40
2020,04,15,15,54,18.40
2020,04,15,15,55,18.30
2020,04,15,15,56,18.20
2020,04,15,15,57,18.20
2020,04,15,15,58,18.20
2020,04,15,15,59,18.30
2020,04,15,16,00,18.40
2020,04,15,16,01,18.40
2020,04,15,16,02,18.40
2020,04,15,16,03,18.40
2020,04,15,16,04,18.50
2020,04,15,16,05,18.50
2020,04,15,16,06,18.60
2020,04,15,16,07,18.60
2020,04,15,16,08,18.60
2020,04,15,16,09,18.50
2020,04,15,16,10,18.50
2020,04,15,16,11,18.30
2020,04,15,16,12,18.20
2020,04,15,16,13,18.10
2020,04,15,16,14,18.10
2020,04,15,16,15,18.10
2020,04,15,16,16,18.10
2020,04,15,16,17,18.20
2020,04,15,16,18,18.20
2020,04,15,16,19,18.20
2020,04,15,16,20,18.20
2020,04,15,16,21,18.20
2020,04,15,16,22,18.30
2020,04,15,16,23,18.40
2020,04,15,16,24,18.60
2020,04,15,16,25,18.70
2020,04,15,16,26,18.80
2020,04,15,16,27,18.80
2020,04,15,16,28,18.80
2020,04,15,16,29,18.80
2020,04,15,16,30,18.70
2020,04,15,16,31,18.70
2020,04,15,16,32,18.70
2020,04,15,16,33,18.70
2020,04,15,16,34,18.70
2020,04,15,16,35,18.70
2020,04,15,16,36,18.70
2020,04,15,16,37,18.70
2020,04,15,16,38,18.70
2020,04,15,16,39,18.70
2020,04,15,16,40,18.70
2020,04,15,16,41,18.70
2020,04,15,16,42,18.70
2020,04,15,16,43,18.70
2020,04,15,16,44,18.70
2020,04,15,16,45,18.70
2020,04,15,16,46,18.80
2020,04,15,16,47,18.80
2020,04,15,16,48,18.80
2020,04,15,16,49,18.80
2020,04,15,16,50,18.80
2020,04,15,16,51,18.80
2020,04,15,16,52,18.80
2020,04,15,16,53,18.70
2020,04,15,16,54,18.60
2020,04,15,16,55,18.50
2020,04,15,16,56,18.50
2020,04,15,16,57,18.40
2020,04,15,16,58,18.30
2020,04,15,16,59,18.30
2020,04,15,17,00,18.30
2020,04,15,17,01,18.30
2020,04,15,17,02,18.30
2020,04,15,17,03,18.40
2020,04,15,17,04,18.50
2020,04,15,17,05,18.60
2020,04,15,17,06,18.60
2020,04,15,17,07,18.70
2020,04,15,17,08,18.70
2020,04,15,17,09,18.70
2020,04,15,17,10,18.70
2020,04,15,17,11,18.70
2020,04,15,17,12,18.80
2020,04,15,17,13,18.80
2020,04,15,17,14,18.80
2020,04,15,17,15,18.90
2020,04,15,17,16,18.90
2020,04,15,17,17,18.90
2020,04,15,17,18,18.90
2020,04,15,17,19,18.80
2020,04,15,17,20,18.80
2020,04,15,17,21,18.80
2020,04,15,17,22,18.90
2020,04,15,17,23,18.90
2020,04,15,17,24,18.80
2020,04,15,17,25,18.80
2020,04,15,17,26,18.70
2020,04,15,17,27,18.70
2020,04,15,17,28,18.60
2020,04,15,17,29,18.60
2020,04,15,17,30,18.60
2020,04,15,17,31,18.60
2020,04,15,17,32,18.60
2020,04,15,17,33,18.60
2020,04,15,17,34,18.60
2020,04,15,17,35,18.70
2020,04,15,17,36,18.70
2020,04,15,17,37,18.80